Погода в Консепсьоне

Парагвай     23°24′36″S   57°26′19″W
темп.,
°C
ветер,
м/с
пор.,
м/с
влажн.,
%
обл.,
%
осадки,
мм/ч
давл.,
гПа
погр.,
м
1 марта, пн
пн100:00+26вюв311580 0.0 1007386
03:00+24в24710 0.0 1007118
06:00+22вюв12800 0.0 100732
09:00+28вюв23610 0.0 1009455
12:00+37вюв22350 0.0 10081807
15:00+35ююв223632 0.0 10042133
18:00+33вюв244398 0.0 1003568
21:00+28вюв266066 0.1 1005168
2 марта, вт
вт200:00+25всв27740 0.0 1007210
03:00+24св28840 0.0 1007292
06:00+22св268934 0.0 1008228
09:00+28ссв376328 0.0 1009663
12:00+36ссв23373 0.0 10091981
15:00+35сз113943 0.0 10051963
18:00+35юв224080 0.0 10051496
21:00+26вюв227776 2.1 100725
3 марта, ср
ср300:00+24всв38870 0.4 1009221
03:00+23всв239527 4.2 1009111
06:00+22св25950 0.0 1009172
09:00+26св37770 0.0 1011450
12:00+37с23390 0.0 10101806
15:00+34всв124440 0.0 10071745
18:00+26ссз478479 2.4 1005148
21:00+23ссв488989 14.6 1008168
4 марта, чт
чт400:00+23св2697100 0.8 1010219
03:00+22св2797100 1.6 1009209
06:00+23ссв2897100 0.0 1009322
09:00+25ссв488591 1.9 1011618
12:00+31ссз3562100 0.9 10091203
15:00+30зсз246998 6.8 1007688
18:00+28ю357793 3.4 1006291
21:00+24з129496 6.9 100831
5 марта, пт
пт500:00+23ююз2495100 2.1 1008124
03:00+22з2296100 4.5 100750
06:00+22з239790 3.5 100688
09:00+22зсз249791 4.9 1008172
12:00+28з247144 2.0 1007924
15:00+28сз247947 6.3 1005820
18:00+27с23835 2.9 1004283
21:00+23с12922 3.3 100529